THOR ABLESTAR DEB, 649

Orbit data source: Space-Track

THOR ABLESTAR DEB, 649 is space debris in LEO originally from a launch on Thu, 29 Jun 1961 UTC launched from the Air Force Eastern Test Range (AFETR). Debris objects in space refer to the collection of defunct objects orbiting the Earth. Examples of debris include non-operational satellites, rocket bodies, and fragments generated from explosions, collisions, or faulty payload assembly.

Loading next visibility...
Identifier
649, 1961-015HA
Orbit
LEO
Country
Flag of USUS
Related business
Manufacturer
Unknown
Mission
Spacecraft
Bus & Motor
Unknown
Mass
Unknown
Launch date (UTC)
1961-06-29 (65 years ago)
Launch vehicle
Unknown
Launch site
Air Force Eastern Test Range (AFETR)
Object type
Payload
Rocket body
Debris
Shape & HBR
Unknown shape, 0.1 m
Radar Cross Section
Medium (>0.1 m² and <1 m²)

Expand to show TLE details & history
Last TLE update: 1 day ago

TLE from 1 day ago
0 THOR ABLESTAR DEB
1 00649U 61015HA  26166.44122243  .00000039  00000-0  28258-3 0  9995
2 00649  66.2638 174.2373 0553622  43.7627  69.6703 12.65319444992416
Epoch: 2026-06-15T10:35Z
TLE epoch observation values (Epoch: 2026-06-15T10:35:21.617Z)
Latitude
52.91883°
Longitude
-103.70275°
Altitude
1,280.713 km
Speed
7.28 km/s
True Right ascension
21h 15m 27s
True Declination
52° 45' 53"
Sunlit
Object was in daylight at epoch
Visualization orbit readout
Latitude
Unknown
Longitude
Unknown
Altitude
Unknown
Speed
Unknown
Apparent Right ascension
Unknown
Apparent Declination
Unknown
Sunlit
N/A
Visualization observer readout
Local Sidereal Time
00:04:32
Azimuth
Unknown
Elevation
Unknown
Doppler factor
Unknown
Orbital elements
Apogee altitude
1,830.202 km
Perigee altitude
969.015 km
Semi-major axis
7,777.746 km
Eccentricity
0.05536
Inclination
66.2638°
RAAN
174.2373°
Arg. of periapsis
43.7627°
True anomaly
75.75408°
Mean anomaly
69.6703°
Eccentric anomaly
72.6988°
Mean motion
3.16419 °/min
Orbital period
113.77 mins
BSTAR
0.00028258

Documentation

Showing up to 5 results
|